Flag for Switzerland Weather past 2 weeks in Bern, Bern, Switzerland

Now
61 °F

Passing clouds.


Feels Like: 61 °F
Forecast: 35 / 69 °F
Wind: 6 mph from North

Location: Bern / Belp

Current Time: May 27, 2015 at 2:37:06 PM

Latest Report: May 27, 2015 at 2:20 PM


Visibility: N/A

Pressure: 30.18 "Hg

Humidity: 45%

Dew point: 39 °F

Location of BernLocation

Historic Weather in Bern — Graph

°F

Bern temperature yesterday

Maximum temperature yesterday: 59 °F (at 2:20 PM)
Minimum temperature yesterday: 50 °F (at 1:20 AM)
Average temperature yesterday: 52 °F

Past Weeks' High & Low Weather Summary

 TemperatureHumidityPressure
High84 °F (May 13, 3:20 PM)100% (May 15, 8:50 PM)30.30 "Hg (May 15, 8:50 PM)
Low39 °F (May 15, 1:20 PM)25% (May 12, 5:20 PM)29.77 "Hg (May 18, 5:50 PM)
Average56 °F74%30.06 "Hg
* Reported May 12 1:20 PM — May 27 1:20 PM, Bern, Weather by CustomWeather, © 2015

Note: Actual official high and low records may vary slightly from our data, if they occured in-between our weather recording intervals... More about our weather records

Advertising

Bern weather history for previous 24 hours

 ConditionsComfort  
Time TempWeatherWind HumidityBarometerVisibility
1:20 PM
Wed, May 27
59 °FPassing clouds.6 mph45%30.21 "HgN/A
12:50 PM59 °FPassing clouds.7 mph48%30.21 "HgN/A
12:20 PM59 °FRefreshingly cool.5 mph48%30.21 "HgN/A
11:50 AM57 °FPassing clouds.7 mph48%30.21 "HgN/A
11:20 AM57 °FPassing clouds.8 mph48%30.21 "HgN/A
10:50 AM55 °FPassing clouds.8 mph47%30.21 "HgN/A
10:20 AM55 °FPassing clouds.6 mph55%30.21 "HgN/A
9:50 AM54 °FPassing clouds.5 mph58%30.21 "HgN/A
9:20 AM54 °FPassing clouds.6 mph58%30.21 "HgN/A
8:50 AM52 °FPassing clouds.5 mph62%30.21 "HgN/A
8:20 AM50 °FPassing clouds.1 mph71%30.21 "HgN/A
7:50 AM50 °FPassing clouds.1 mph82%30.21 "HgN/A
7:20 AM48 °FPassing clouds.No wind87%30.21 "HgN/A
6:50 AM45 °FPassing clouds.No wind93%30.21 "HgN/A
6:20 AM45 °FPassing clouds.2 mph93%30.21 "HgN/A
5:50 AM46 °FPassing clouds.2 mph93%30.21 "HgN/A
5:20 AM46 °FOvercast.2 mph93%30.21 "Hg4 mi
4:50 AM48 °FPartly cloudy.1 mph82%30.21 "HgN/A
4:20 AM48 °FPartly cloudy.1 mph82%30.21 "HgN/A
3:50 AM48 °FOvercast.1 mph82%30.21 "HgN/A
3:20 AM48 °FOvercast.1 mph82%30.18 "HgN/A
2:50 AM48 °FOvercast.2 mph82%30.18 "HgN/A
2:20 AM48 °FPartly cloudy.3 mph87%30.18 "HgN/A
1:50 AM48 °FPartly cloudy.5 mph87%30.18 "HgN/A
1:20 AM50 °FPartly cloudy.2 mph82%30.18 "HgN/A
12:50 AM50 °FPartly cloudy.2 mph94%30.18 "Hg6 mi
12:20 AM50 °FPartly cloudy.2 mph94%30.18 "Hg4 mi
11:20 PM
Tue, May 26
50 °FFog.1 mph94%30.18 "Hg2 mi
10:50 PM50 °FOvercast.No wind94%30.18 "Hg3 mi
10:20 PM50 °FPartly cloudy.2 mph100%30.15 "Hg4 mi
9:50 PM50 °FFog.1 mph100%30.15 "Hg3 mi
9:20 PM50 °FBroken clouds.1 mph100%30.15 "Hg3 mi
8:50 PM50 °FLight rain. Partly sunny.1 mph94%30.15 "Hg3 mi
8:20 PM50 °FLight rain. Partly sunny.2 mph94%30.12 "Hg3 mi
7:50 PM50 °FLight rain. Overcast.5 mph94%30.12 "Hg3 mi
7:20 PM50 °FRain. More clouds than sun.6 mph94%30.12 "Hg3 mi
6:50 PM50 °FRain. More clouds than sun.5 mph94%30.09 "Hg3 mi
6:20 PM52 °FLight rain. Broken clouds.7 mph88%30.09 "Hg3 mi
5:50 PM52 °FDrizzle. Partly sunny.7 mph88%30.09 "HgN/A
5:20 PM52 °FBroken clouds.6 mph88%30.09 "HgN/A
4:50 PM52 °FBroken clouds.9 mph88%30.07 "HgN/A
4:20 PM52 °FLight rain. Broken clouds.9 mph88%30.07 "HgN/A
3:50 PM55 °FScattered showers. Scattered clouds.13 mph77%30.07 "HgN/A
3:20 PM57 °FScattered clouds.2 mph67%30.04 "HgN/A
2:50 PM57 °FScattered clouds.2 mph63%30.04 "HgN/A
2:20 PM59 °FBroken clouds.5 mph72%30.04 "HgN/A
Weather by CustomWeather, © 2015

See weather overviewHow to use our weather pages